Volver al catálogo

INTELSAT 33E DEB

ActivoGEO
NORAD 61997·DEBRIS· XX

Lanzado Aug 24, 2016 desde Guiana Space Centre

Loading…

TLE

ActualizadoSource: Space-Track

Época: Sep 13, 2026, 18:36 UTC

1 61997U 16053P   26256.77553856  .00000075  00000-0  00000-0 0  9996
2 61997   1.7900  83.8693 0091352 273.9916  85.7457  1.01609446  7065

Sigue INTELSAT 33E DEB en tiempo real con AllMySat

Download on the App Store